Espace membre
Imprimable
Averbode, 10/05/2018, BEL - Lampiris Abdijentocht 2018
Liste des rapports > 16 km - Classement
Recherche: Page: [1]
273 Entrées
 
Les réclamations ne sont plus acceptées, les résultats sont considérés comme définitifs.
RangNrNomAgeIOCEquipeTempsTkmMoy.ScrLocalité
1.505NAETS Sven35BEL55:003:27 17.464WESTMALLE
2.78JANSE Jelle36BEL55:303:29 17.307LUBBEEK
3.61VAN DE GAER Wesley38BEL56:083:31 17.109AVERBODE
4.66DE PAUW Gerrit39BEL57:463:37 16.6215DUISBURG
5.983VERBOVEN Jan38BEL58:103:39 16.5117WESTERLO
6.40708DESCHACHT Koen35BEL1:00:423:48 15.8224LINKEROEVER
7.51PAGLIALUNGA Mattias35BELDE GOOR MANNE1:00:433:48 15.8125AARSCHOT
8.40277COOPMANS Erwin39BELNIKE ELC1:01:003:49 15.7427VORSELAAR
9.14OPRINS Jimmy39BEL1:01:283:51 15.6229BONHEIDEN
10.890LEYS Maarten35BEL1:01:563:53 15.5031GIERLE
11.128KRISTOF Mertens39BEL1:02:523:56 15.2741LAAKDAL
12.29VANDINGENEN Kristof35BEL1:04:414:03 14.8464MEERHOUT
13.40630SNEYERS Jeroen38BEL1:04:444:03 14.8365LUMMEN
14.7CORTEN Jimmy37BEL1:04:524:04 14.8068HERSELT
15.1474VANCRAEYNEST Fedrik39BEL1:04:544:04 14.7970OEVEL
16.33LAENEN Glenn37BEL1:04:554:04 14.7971NIJLEN
17.72VERSTREPEN Tim38BEL1:05:024:04 14.7772LANGDORP
18.84MEYNCKENS Peter36BEL1:05:034:04 14.7673LANGDORP
19.17GEENS Kenny35BEL1:05:104:05 14.7376BERLAAR
20.105BOONROOY Kenneth35BEL1:05:244:06 14.6879PUTTE
21.1238KELLENS Ruben36BEL1:05:254:06 14.6881TESSENDERLO
22.1603DE SCHUTTER Jef36BEL1:05:394:07 14.6286GEEL
23.2282HEYLEN Willem35BEL1:05:404:07 14.6287NOORDERWIJK
24.2FREDERICKX Bruno39BEL1:06:014:08 14.5491LIER
25.651MONDELAERS Steven36BEL1:06:244:09 14.4694LAAKDAL
26.2350VAN DEN BROECK Stef37BEL1:06:414:11 14.40102WESTERLO
27.1126CYPERS Jo36BEL1:07:194:13 14.26117AARSCHOT
28.968VAN POUCKE Christophe39BEL1:07:234:13 14.25119LUMMEN
29.844CEUSTERS Yves39BEL1:07:434:14 14.18126TESSENDERLO
30.39VAN WERDE Bernd38BEL1:08:134:16 14.07140HAACHT
31.130DRIEZEN Tim39BEL1:08:254:17 14.03143WESTERLO
32.1215VAN DEN EYNDE Stijn35BEL1:08:284:17 14.02144NEERLINTEER
33.951GORTS Hans35BEL1:08:364:18 14.00148GEEL
34.267CEUSTERS Tom36BEL1:08:504:19 13.95155TONGERLO
35.2342VERHOEVEN Kris38BEL1:09:114:20 13.88158VOSSEM
36.40546BRANDERS Hendrik36BEL1:09:144:20 13.87161GORSEM
37.40638NEVEN Peter39BEL1:09:314:21 13.81169NIEUWRODE
38.2227ALENIS Lieven36BEL1:09:444:22 13.77174WESTMALLE
39.2241VAN DOREN Johan36BEL1:09:544:23 13.74181MORTSEL
40.2189HOLLEBECQ Hannes35BEL1:10:224:24 13.65198DIEST
41.854WILSSENS Dries35BEL1:10:474:26 13.56215ELSENE
42.680CRISTAEL Roel37BEL1:10:564:26 13.53217LAAKDAL
43.1495STYNEN Andreas38BEL1:11:044:27 13.51221DEURNE
44.1736VAN DE POEL Jan37BEL1:11:074:27 13.50224GEEL
45.40309DE WACHTER Bert37BEL1:11:124:27 13.48225ANTWERPEN
46.1125DEWEL Koen36BEL1:11:184:28 13.47226AARSCHOT
47.90CORNEILLIE Tom39BEL1:11:214:28 13.46227OOSTERWIJK
48.1136GEYSKENS Wim36BEL1:11:294:29 13.43231HERSELT
49.636AERTS Kenny38BEL1:11:364:29 13.41232TESTELT
50.1343VAN OTTEN Sven38BEL1:11:414:29 13.39236HERSELT
51.807JANSSENS Alexander35BEL1:11:434:29 13.39239TESSENDERLO
52.865JASPERS Joost37BEL1:11:484:30 13.37240BERINGEN
53.1348MEUL Hans35BEL1:11:494:30 13.37242BEVEREN
54.522VANHOUTTE Bart Ludovicus39BEL1:12:094:31 13.31261TIENEN
55.898CAMMAERT Andy37BEL1:12:214:32 13.27265SCHILDE
56.622GIELE Frans35BEL1:12:254:32 13.26266BORSBEEK
57.40254VANMEENSEL Kim39BEL1:12:364:33 13.22276BELGIE
58.1501CORTEN Rob39BEL1:12:484:33 13.19281LAAKDAL
59.489MEEUS Jimmy39BEL1:12:484:33 13.19282OUD-TURNHOUT
60.1225WIJKMAN Kenneth35BEL1:12:534:34 13.17288LANAKEN
61.30HEYLEN Koen39BEL1:12:544:34 13.17289HERENTHOUT
62.564EXELMANS Jimmy38BEL1:12:554:34 13.17290VEERLE-LAAKDAL
63.40175VERSTREPEN Rob38BEL1:13:024:34 13.15297WESTERLO
64.40695VAN SCHIL Jeroen36BEL1:13:054:35 13.14303PUTTE
65.600VANDERBRUGGEN Bjorn38BEL1:13:084:35 13.13306RILLAAR
66.1107DEBIE Dries35BEL1:13:104:35 13.12310LEUVEN
67.40332LENAERTS Davy35BEL1:13:144:35 13.11312LAAKDAL
68.1747MAES Wim39BEL1:13:424:37 13.03328BEVEREN
69.583PUTTEMANS Raf38BEL1:13:434:37 13.02331TERVUREN
70.73VERHOEVEN Gerrit38BEL1:13:474:37 13.01335BORSBEEK
71.339DE LOBEL Tom36BELDE GOOR MANNE1:14:034:38 12.97352LANGDORP
72.1544MOENS Niki39BEL1:14:034:38 12.96354AALST
73.621SABO Stijn36BEL1:14:094:39 12.95361BORSBEEK
74.40636VOGELEER René37BEL1:14:234:39 12.91372KESSEL-LO
75.1428PIQUEUR Gert38BELMARATHON AMBASSADEURS BRU1:14:424:41 12.85386AALST
76.40592BEHETS Pieter38BEL1:14:424:41 12.85387LOVENJOEL
77.606DRIESEN Wim38BEL1:15:004:42 12.80402HASSELT
78.451SORGELOOS Wout35BEL1:15:004:42 12.80403HASSELT
79.40260VERTOMMEN Joris35BEL1:15:024:42 12.80405BOORTMEERBEEK
80.1169VAN LOOVEREN Stijn36BEL1:15:094:42 12.78411SCHOTEN
81.40704HERMANS Kevin35BEL1:15:164:43 12.76413ANTWERPEN
82.1284STERCKX Kristof36BEL1:15:254:43 12.73422TESSENDERLO
83.1074VISSERS Christophe36BEL1:15:464:45 12.67441KONTICH
84.1296VANDEBEECK Dieter38BEL1:15:484:45 12.66443TESSENDERLO
85.40305BRUGMAN Paul38NLD1:16:014:46 12.63449MALLE
86.1663VAN EYCKEN Kenny37BEL1:16:024:46 12.63451ERPS-KWERPS
87.1414VERMEESEN Kristof38BEL1:16:034:46 12.62454BALEN
88.483VAN NOTEN Dimitri36BEL1:16:054:46 12.62457WESTERLO
89.732GEENS Bjorn36BEL1:16:074:46 12.61458ONZE-LIEVE-VROUW WAVER
90.1478VAN DEN BROECK Jens35BEL1:16:124:46 12.60460GEEL
91.1281SYS Alexander38BEL1:16:274:47 12.56472WILSELE
92.552VAN HOECK Koen36BEL1:16:294:47 12.55475KAPELLE-OP-DEN-BOS
93.2315VAN LEEUWEN Kevin37BELNIKE ELC1:16:294:47 12.55476PAAL
94.893VAN ROOY Kristof37BEL1:16:294:47 12.55478HERENTALS
95.1044BELLINGS Christoph37BEL1:16:304:47 12.55479SCHERPENHEUVEL-ZICHEM
96.1265BRACKE Wouter39BEL1:16:324:47 12.54483HEVERLEE
97.323VANDEVELDE Wesly37BELSANOFI GEEL1:16:364:48 12.53486VOSSELAAR
98.1257VAN OIJSTAEIJEN Joachim36BEL1:16:444:48 12.51491AARTSELAAR
99.871DE MOOR Frank Karel39BEL1:16:474:48 12.50495HASSELT
100.1057DELPLANQUE Loic Anne39BEL1:16:484:48 12.50497LEUVEN
101.40668DE BLOCK Dries35BEL1:16:514:49 12.49501TIELT
102.2128RISKÉ Tom35BEL1:17:014:49 12.47506WESTERLO
103.40690MICHIELS Stijn38BEL1:17:104:50 12.44512WESTERLO
104.40517MERTENS Tim39BEL1:17:194:50 12.42520GEEL
105.40377BIJNENS Tom35BEL1:17:244:51 12.40525DEURNE
106.40570SANNA Glenn36BEL1:17:384:52 12.37539VEERLE-LAAKDAL
107.330VAN LOY Jan38BELSANOFI GEEL1:17:434:52 12.35545OLEN
108.551WUYTS Frank35BEL1:17:444:52 12.35546ROTSELAAR
109.1216HOREMANS Jan36BEL1:17:494:52 12.34553WESTERLO
110.40590LEVECKE Steven39BEL1:17:574:53 12.32559KESSEL-LO
111.40670MAES Wim39BEL1:18:224:54 12.25580HEUSDEN-ZOLDER
112.40286TOM Janse38BEL1:18:264:55 12.24586RAMSEL
113.320DANEELS Nico35BELSANOFI GEEL1:18:284:55 12.24588LILLE
114.2088MEIR Benny36BEL1:18:374:55 12.21596WESTERLO
115.82LEMMENS Thomas35BEL1:18:474:56 12.19605HERSELT
116.40407GEYS Stijn37BEL1:19:104:57 12.13624BALEN
117.1098GEURTS Joeri36BEL1:19:144:58 12.12626AARTSELAAR
118.1833DEVUE Jan37BEL1:19:244:58 12.09632HALEN
119.937PLUYM Hans36BEL1:19:254:58 12.09634TURNHOUT
120.2264DEPREZ Kim36BEL1:19:314:59 12.07638HEIST-OP-DEN-BERG
121.40440SVEN De Busser37BEL1:19:334:59 12.07639LICHTAART
122.915BECKERS Christophe37BEL1:19:334:59 12.07640DIEST
123.9VALKENBORGH Joris36BEL1:19:424:59 12.05648TESSENDERLO
124.40349VAN TIGGELEN Gery38BEL1:19:495:00 12.03653POEDERLEE
125.1496VENNEKENS Joost38BEL1:20:055:01 11.99671KESSEL-LO
126.2198TACK Dries36BEL1:20:075:01 11.98674ASSE
127.1695BOOGERS Jonas35BELNIKE ELC1:20:095:01 11.98676WESTERLO
128.1807VAN GORP Steven37BEL1:20:125:01 11.97677POEDERLEE
129.1512GORIS Nick35BELAVERY DENNISON1:20:175:02 11.96681TURNHOUT
130.1500PEETERS Nico39BEL1:20:525:04 11.87708TESTELT
131.1562GIJSEN Jany36BEL1:21:095:05 11.83727OELEGEM
132.40317VANDENHOECK Steve36BEL1:21:275:06 11.79746OLEN
133.2349VAN GENECHTEN Jan36BEL1:21:305:06 11.78751HEIST OP DEN BERG
134.1538NICLOT Michel39BEL1:21:335:06 11.77753WESTMEERBEEK
135.934VLEMINCKX Tom38BEL1:21:425:07 11.75764SCHIPLAKEN
136.864SANTINO André Alain39BEL1:21:435:07 11.75765LEUVEN
137.1490VERTOMMEN Mik39BEL1:21:435:07 11.75766ERPS-KWERPS
138.385DAMS Tim36BEL1:21:435:07 11.75767GEEL
139.2043ONSIA Pieter38BEL1:21:565:08 11.72783SINT-LAMBRECHTS-HERK
140.1374VAN LOOVEREN Steven39BELOLEON1:22:185:09 11.67806ZOERSEL
141.40360VAN PRAET Kristof36BEL1:22:225:09 11.66809WERCHTER
142.40540DENIS Hans37BEL1:22:225:09 11.66810HERENTALS
143.1385MOORE Thomas38BEL1:22:245:09 11.65816ANTWERPEN
144.1504WILLEKENS Jan39BEL1:22:255:10 11.65818BEERSE
145.40315VAN BAEL Steven37BEL1:22:315:10 11.64823HOUTVENNE
146.1676PINXTEREN Dave35BEL1:22:575:12 11.58842ANTWERPEN
147.2270GOETSCHALCKX Mark39BEL1:23:015:12 11.57850RIJKEVORSEL
148.710BLOM Sander37NLD1:23:055:12 11.56857GOIRLE
149.1019DAEMS Kristof Jozef38BEL1:23:185:13 11.53869LAAKDAL
150.1660VAN DINGENEN Bart39BEL1:23:265:13 11.51875VEERLE
151.1227BIESEMANS Rob38BEL1:23:355:14 11.49883TESTELT
152.2167VAN BERENDONCK Kris39BELOLEON1:23:375:14 11.48885ZOERSEL
153.1134DEMARSIN Bert38BEL1:23:485:15 11.46895ZOUTLEEUW
154.2129WITVROUWEN Gerry39BEL1:23:545:15 11.44900HULSHOUT
155.40270JASPERS Tom39BEL1:24:075:16 11.41908MESSELBROEK
156.880STYNEN Raf39BEL1:24:115:16 11.40914GEEL
157.1809PEETERS Davy38BEL1:24:125:16 11.40918POEDERLEE
158.800SMETS Steven39BEL1:24:135:16 11.40919NIJLEN
159.947ASSELBERGHS Kurt39BEL1:24:205:17 11.39927ROTSELAAR
160.1206VERPOORT Brecht38BEL1:24:315:17 11.36935ZELEM
161.1285ELSEN Dries36BEL1:24:385:18 11.35945HEUSDEN-ZOLDER
162.40669VANHUMBEECK Bjorn39BEL1:24:405:18 11.34949KESSEL-LO
163.849DECOCK Reinout38BEL1:24:415:18 11.34950GEEL
164.1303TOMBEUR Pieter35BEL1:24:455:18 11.33957MEENSEL-KIEZEGEM
165.1788BRANCKAERTS Wim39BEL1:24:495:19 11.32966OLEN
166.1115VAN NUFFELEN Ignace38BEL1:24:585:19 11.30974MECHELEN
167.400GEUDENS Gert38BEL1:24:595:19 11.30977HERENTALS
168.2233VAN DER SANDEN Roel36BEL1:25:095:20 11.28991SINT-TRUIDEN
169.40585GELEYN Sam35BEL1:25:175:20 11.261003LEUVEN
170.40577DE WEVER Kristof39BEL1:25:255:21 11.241011GEEL
171.1304VANVOSSEL Jaochim35BEL1:25:395:22 11.211019GRIMBERGEN
172.40337CORTEN Jo37BEL1:25:415:22 11.201023GEEL
173.40426CORTEN Hugo39BEL1:25:415:22 11.201024TURNHOUT
174.617VAN DER BORGHT Jelle36BEL1:25:495:22 11.191029WESTERLO
175.324BROUNS Arno38BELSANOFI GEEL1:25:555:23 11.171035BALEN
176.1823VERELLEN Peter38BEL1:26:095:24 11.141043NIJLEN
177.1123VAN HOVE Guy36BEL1:26:135:24 11.141049WESTERLO
178.435GOVAERTS Erik Edmondus38BEL1:26:185:24 11.121057SCHERPENHEUVEL-ZICHEM
179.1064AERTS Luc39BEL1:26:195:24 11.121058WUUSTWEZEL
180.1446VERBEECK Tom36BEL1:26:255:25 11.111062HERSELT
181.1156IACOB Mircea36FRA1:26:275:25 11.101067PARIS
182.2388CORDEMANS Wim39BEL1:26:375:25 11.081081BEVEREN-WAAS
183.1270KRIS Fivez38BEL1:26:505:26 11.061096TURNHOUT
184.539CLAES Geert35BEL1:27:165:28 11.001118WIEKEVORST
185.406DAEMS Thomas35BEL1:27:205:28 10.991123ANTWERPEN
186.714REMEYSEN Sam35BEL1:27:285:28 10.981130TISSELT
187.598CEULEMANS Lieven37BEL1:27:415:29 10.951145WESTERLO
188.597MELIS Steven37BEL1:27:435:29 10.951149WESTERLO
189.925DENISSEN Leo Marcel38BEL1:28:095:31 10.891175SCHOTEN
190.1597KETELSLEGERS Jeroen39BEL1:28:105:31 10.891178HAACHT
191.40703MATHIAS Vander Aerschot37BEL1:28:175:32 10.881184SCHILDE
192.1032VAN MEERBEEK Tim Simo38BEL1:28:265:32 10.861191AARSCHOT
193.1606VAN HOOF Christophe35BEL1:28:465:33 10.821210SCHRIEK
194.727VAN DEN EYNDE Maarten38BEL1:28:475:33 10.811213WESTERLO
195.1481HENDRICKX Christophe38BEL1:28:495:34 10.811218GEEL
196.40682MICHIELS Koen36BEL1:28:555:34 10.801225HERENTALS
197.447CROONENBORGHS Nick38BEL1:29:005:34 10.791229WESTERLO
198.40344EYCKMANS Tom37BEL1:29:035:34 10.781237LAAKDAL
199.528KERCKHOVEN Pascal38BEL1:29:125:35 10.761250ZONHOVEN
200.40273DE SMEDT Dries36BEL1:29:155:35 10.761254OLEN
201.2239VAN BOVEN Joeri39BEL1:29:165:35 10.751257GEEL
202.419VAN LOOY Peter35BEL1:30:025:38 10.661295BROECHEM
203.40444DEROLOFFE Frédéric35BEL1:30:165:39 10.641319INCOURT
204.40521HARRIS Jermain37JAM1:30:235:39 10.621330LAAKDAL
205.712BOSMANS Tim38NLD1:30:245:39 10.621333BREDA
206.40414JACQUEMYN Tom37BEL1:30:265:40 10.621335ITEGEM
207.1479VOS Marc35BEL1:30:565:41 10.561361GEEL
208.40484DECABOOTER Tom36BEL1:31:255:43 10.501396HERENT
209.1256DE BRAUWER Jeremy39BEL1:31:335:44 10.491403EMBLEM
210.1277VERDONCK Thomas37BEL1:31:515:45 10.451430WESTERLO
211.836MALFLIET Andy38BEL1:31:585:45 10.441438WESTERLO
212.1708BUNTJENS Bert37BEL1:32:015:46 10.431442MEERHOUT
213.812DIERCKX Carl36BEL1:32:035:46 10.431443ANTWERPEN
214.40323VERDONCK Dirk35BEL1:32:165:46 10.411460ZICHEM
215.445BOGAERTS Johan38BEL1:32:205:47 10.401468LOMMEL
216.2314BORDONARO Frederic37BEL1:32:315:47 10.381475LA LOUVIERE
217.2150SUTTELS Kristof37BEL1:32:325:47 10.381477LEEFDAAL
218.1670BOECKX Kristof39BEL1:32:345:48 10.371480TONGERLO
219.886DELVAUX Kenny36BEL1:32:415:48 10.361483ZOUTLEEUW
220.1158JANSSEN Ruben36BEL1:33:005:49 10.321504HERSELT
221.904CUYPERS Jan36BEL1:33:135:50 10.301522WESTERLO
222.1871COOREMANS Christophe39BEL1:33:135:50 10.301524EKEREN
223.40613BECKERS Stijn39BEL1:33:435:52 10.241559WESTERLO
224.733FAES Kris38BEL1:33:555:53 10.221581EINDHOUT
225.734MAES Kim36BEL1:33:555:53 10.221584LOMMEL
226.40504DE BELIE Ruben37BEL1:34:085:53 10.201602KESSEL-LO
227.40464VAN PUYVELDE Nick36BEL1:34:105:54 10.201607BURCHT
228.2141MULLENS Nico39BEL1:34:105:54 10.191608BEERSE
229.624GELEYN Jonas36BEL1:34:365:55 10.151645NEERIJSE
230.1152CHITSONGBOON Kiattisak39THA1:34:415:56 10.141651BRUXELLES
231.802VAN WYNSBERGE Tom39BEL1:34:505:56 10.121659EEKLO
232.1320WAUTERS Steve35BEL1:34:525:56 10.121668GEETBETS
233.40742SANTY Bert37BEL1:35:095:57 10.091682KORTRIJK-DUTSEL
234.594AERTS Niki38BELNIKE ELC1:35:175:58 10.081695TESTELT
235.2283DIEDENS Raf35BEL1:35:506:00 10.021727ITEGEM
236.1241TRUYENS Bjorn35BEL1:35:516:00 10.021728HAM
237.2222BARTELS Jochen38BEL1:35:546:00 10.011738HEUSDEN ZOLDER
238.842JANSSENS Wouter38BEL1:36:096:01 9.981748HEIST-OP-DEN-BERG
239.1602VERWIMP Gepke36BEL1:36:136:01 9.981751GEEL
240.327ESSELDEURS Gert38BELSANOFI GEEL1:36:176:02 9.971756ZICHEM
241.40413PELSTER Marcel39NLD1:36:396:03 9.931775VLISSINGEN
242.953NIETVELT Jimmy39BEL1:37:176:05 9.871815HERENTALS
243.1554VAN DER HERTEN Tim39BEL1:37:256:06 9.861820BEERSE
244.1398VAN MELLAERT Kenny39BEL1:37:326:06 9.841830HULSHOUT
245.1310CUYPERS Ramesh39BEL1:37:336:06 9.841835MOLENSTEDE-DIEST
246.2027NEUTS Bart Arthur38BEL1:37:516:07 9.811852MEERHOUT
247.1189DILS Jurgen38BEL1:37:556:08 9.801861KESSEL
248.1703VANDERHEYDEN Glen39BEL1:37:586:08 9.801864VEERLE LAAKDAL
249.40522BARTHOLOMEEUSEN Wout37BEL1:38:006:08 9.801867SINT-LENAARTS
250.903VERCAMMEN Jeroen38BEL1:38:406:10 9.731895GEEL
251.40600HERMANS Frederik36BEL1:38:456:11 9.721896KOERSEL
252.1686PRINSEN Kristof35BEL1:38:536:11 9.711907TESTELT
253.40564SAADUN Oussama39BEL1:39:226:13 9.661932
254.2359VAN DE VELDE Dimi36BEL1:40:016:16 9.601966SINT-GILLIS-WAAS
255.1804VANDAEL Rombout36BEL1:40:166:16 9.581973HERENTALS
256.40652VLAIJEN Kenny39BEL1:40:306:17 9.551988LUMMEN
257.2166LAUREYS Dimitri37BEL1:40:486:18 9.532003WILRIJK
258.444NAGELS Pieterjan Maria38BEL1:41:236:21 9.472029HEMIKSEM
259.520DE KONINCK Philip Paul37BEL1:42:036:23 9.412070LIER
260.40404MADDENS Bert35BEL1:42:076:23 9.402076TIELT-WINGE
261.2236CLERCKX Tim37BEL1:42:356:25 9.362096HECHTEL
262.40497CEUPPENS Jurgen38CCK1:43:296:29 9.282131BERCHEM
263.2231GORRIS Hans37BEL1:44:266:32 9.192174ANTWERPEN
264.811PEETERS Kristof37BEL1:44:286:32 9.192175ANTWERPEN
265.2216HEIREMANS Gert37BEL1:45:366:36 9.092200LAAKDAL
266.2243VAN BALBERGHE Dago39BEL1:46:466:41 8.992250OLV WAVER
267.1685PEETERMANS Willem35BEL1:47:036:42 8.972257VEERLE-LAAKDAL
268.1440BUGGENHOUT Jim Lea37BEL1:47:136:43 8.952263DENDERMONDE
269.342KENIS Luk37BEL1:49:266:51 8.772324OLMEN
270.40687CHOW William35BEL1:51:346:59 8.612371SCHOTEN
271.623CAUWENBERGH Bart39BEL1:55:297:14 8.312418TIENEN
272.40390BAL Glen37BEL1:59:097:27 8.062458WESTERLO
DNF858KRISTOFF Rens38BELHERSELT
DNF: abandon; DSQ: disqualifié; Vitesse en km/h
Page: [1]